Date,TemperatureHighF,TemperatureAvgF,TemperatureLowF,DewpointHighF,DewpointAvgF,DewpointLowF,HumidityHigh,HumidityAvg,HumidityLow,PressureMaxIn,PressureMinIn,WindSpeedMaxMPH,WindSpeedAvgMPH,GustSpeedMaxMPH,PrecipitationSumIn
2012-1-1,80.4,73.4,68.9,68.9,66.4,63.2,94,80,60,30.25,30.15,9,4,14,0.00
2012-1-2,81.7,70.7,64.4,65.7,60.7,50.2,90,73,50,30.22,30.08,16,7,27,0.00
2012-1-3,66.4,59.8,51.3,53.8,42.9,30.3,69,55,45,30.35,30.18,20,11,34,0.00
2012-1-4,66.4,56.9,48.7,52.4,41.2,25.7,81,58,40,30.40,30.27,9,5,17,0.00
2012-1-5,68.2,61.0,56.1,50.0,46.5,34.6,77,61,33,30.32,30.21,10,5,18,0.00
2012-1-6,79.0,63.4,54.3,55.9,47.0,29.5,83,61,21,30.26,30.14,6,3,11,0.00
2012-1-7,76.3,67.1,60.3,60.8,57.9,54.8,91,75,51,30.20,30.11,8,4,12,0.00
2012-1-8,76.8,69.3,63.1,63.4,59.5,53.0,90,73,46,30.23,30.12,11,6,19,0.00
2012-1-9,78.1,71.4,66.6,65.7,63.9,62.2,92,79,61,30.17,30.06,15,7,21,0.00
2012-1-10,80.4,72.4,65.8,68.2,65.5,63.4,96,80,64,30.08,29.94,8,4,14,0.00
2012-1-11,81.7,74.6,72.0,69.9,66.9,62.5,90,78,65,29.98,29.74,22,9,38,0.09
2012-1-12,81.7,73.1,68.2,73.0,68.4,66.6,95,86,64,30.02,29.85,12,4,26,0.14
2012-1-13,78.3,70.6,67.1,71.6,65.3,61.1,98,85,58,30.17,30.00,11,4,18,0.05
2012-1-14,68.7,63.9,59.7,61.9,49.2,41.1,83,61,44,30.32,30.16,13,8,24,0.00
2012-1-15,72.0,64.2,59.4,52.6,41.1,26.6,77,47,24,30.43,30.30,11,8,24,0.00
2012-1-16,72.5,65.9,59.9,60.3,54.7,45.2,84,68,54,30.39,30.27,14,8,22,0.00
2012-1-17,77.2,70.0,62.8,64.9,62.3,58.7,91,78,62,30.28,30.12,9,5,14,0.00
2012-1-18,68.0,65.3,64.9,64.5,63.8,62.1,96,95,84,30.14,29.91,11,3,17,0.00
2012-1-19,68.7,65.6,60.6,64.7,55.9,44.7,93,73,44,30.09,29.95,15,6,22,0.00
2012-1-20,76.6,71.1,66.2,63.6,61.2,57.4,89,73,56,30.04,29.95,13,7,21,0.00
2012-1-21,80.4,73.7,67.6,66.5,62.8,59.7,90,70,54,30.01,29.91,8,4,14,0.00
2012-1-22,79.2,72.6,67.5,66.5,64.2,59.0,94,77,54,29.99,29.91,9,4,14,0.00
2012-1-23,80.1,74.0,69.8,68.4,66.9,64.0,91,79,65,30.08,29.90,12,6,21,0.00
2012-1-24,80.1,75.2,71.1,69.9,67.9,66.6,92,79,67,30.14,30.04,11,7,21,0.00
2012-1-25,80.2,75.9,72.5,69.4,67.6,65.5,86,76,65,30.12,30.04,14,9,22,0.00
2012-1-26,81.5,76.5,74.1,70.8,67.5,64.4,86,75,60,30.08,29.97,13,8,21,0.00
2012-1-27,83.7,77.1,72.7,71.5,70.1,68.1,89,80,63,30.06,29.96,9,4,18,0.00
2012-1-28,84.9,74.8,69.6,69.9,67.4,63.1,90,79,60,30.16,30.04,9,4,18,0.00
2012-1-29,78.4,72.5,68.7,68.0,65.7,63.1,87,80,70,30.21,30.10,9,6,18,0.00
2012-1-30,76.5,72.0,68.9,65.6,63.6,62.1,84,75,64,30.24,30.14,18,12,31,0.00
2012-1-31,77.7,74.0,72.0,67.7,66.1,64.7,81,77,71,30.24,30.15,18,12,28,0.00
2012-2-1,79.2,74.9,72.1,69.5,67.1,65.6,87,77,65,30.19,30.08,17,10,26,0.00
2012-2-2,80.2,74.9,70.7,69.1,67.6,65.8,90,79,64,30.13,30.03,11,6,21,0.00
2012-2-3,78.4,74.9,72.1,68.0,65.5,62.2,84,74,60,30.15,30.05,17,12,28,0.00
2012-2-4,78.8,75.6,72.1,68.1,66.6,63.8,83,74,62,30.10,30.00,18,13,28,0.00
2012-2-5,76.1,73.5,68.7,71.1,68.9,66.3,93,86,75,30.03,29.94,12,5,21,0.61
2012-2-6,80.2,73.5,68.2,71.1,68.7,66.6,96,85,71,30.02,29.92,12,6,21,0.69
2012-2-7,86.9,75.9,70.0,73.6,69.9,67.5,93,83,60,30.02,29.92,7,3,11,0.05
2012-2-8,74.3,71.3,69.3,69.4,67.5,65.6,94,88,81,30.06,29.96,9,4,15,0.00
2012-2-9,80.8,73.7,69.8,69.9,67.6,64.3,92,82,68,30.06,29.97,12,6,18,0.00
2012-2-10,86.9,75.8,71.8,73.3,70.5,69.2,95,85,60,30.03,29.91,7,3,14,0.00
2012-2-11,76.8,71.2,64.6,72.0,63.7,53.0,92,78,64,30.09,29.88,18,10,33,0.00
2012-2-12,64.4,59.0,55.0,52.3,41.0,29.4,70,54,31,30.27,30.08,18,10,29,0.00
2012-2-13,71.8,63.4,54.3,57.7,52.4,44.5,88,69,52,30.21,30.07,13,8,23,0.00
2012-2-14,78.6,71.9,67.8,64.2,60.7,55.9,87,69,53,30.13,30.04,8,5,13,0.00
2012-2-15,79.7,73.6,66.7,66.3,64.5,62.6,89,74,60,30.17,30.08,10,6,15,0.00
2012-2-16,81.3,75.3,70.7,68.3,66.7,65.2,91,76,60,30.17,30.05,9,6,15,0.00
2012-2-17,84.6,76.7,71.1,69.4,67.0,65.0,92,74,55,30.08,29.99,7,4,12,0.00
2012-2-18,81.7,76.5,71.8,70.7,67.9,65.7,85,76,61,30.02,29.89,9,4,14,0.00
2012-2-19,84.9,78.4,73.0,74.2,71.9,68.9,88,81,69,29.99,29.89,16,7,26,0.00
2012-2-20,80.4,72.3,68.2,68.9,61.5,56.3,87,70,46,30.13,29.96,11,6,18,0.00
2012-2-21,78.4,73.3,67.8,66.7,62.9,58.5,89,71,61,30.17,30.08,12,8,20,0.00
2012-2-22,86.4,76.2,71.4,66.6,63.5,60.6,81,66,50,30.12,29.96,8,4,13,0.00
2012-2-23,84.9,77.8,72.9,72.2,69.4,66.4,91,76,61,30.01,29.91,8,4,14,0.00
2012-2-24,85.5,79.1,75.0,73.5,72.3,70.7,92,81,65,30.05,29.95,7,4,15,0.00
2012-2-25,86.4,79.2,72.5,75.7,71.7,67.9,94,79,63,30.12,30.01,10,4,21,0.00
2012-2-26,81.5,76.7,72.0,71.5,69.7,67.8,92,80,68,30.19,30.11,18,12,28,0.47
2012-2-27,82.2,78.5,76.3,71.6,70.6,69.2,84,77,68,30.23,30.14,16,12,28,0.00
2012-2-28,82.0,78.1,75.6,71.7,69.6,67.8,86,76,64,30.20,30.12,13,10,21,0.00
2012-2-29,82.6,78.3,75.4,70.1,68.6,66.0,82,73,62,30.17,30.07,13,9,19,0.00
2012-3-1,84.7,78.8,75.6,70.1,67.8,66.4,81,70,57,30.10,30.00,10,6,17,0.00
2012-3-2,84.2,79.2,76.1,71.6,69.8,68.0,82,74,63,30.04,29.96,12,8,19,0.00
2012-3-3,85.3,79.7,76.6,73.1,71.3,70.1,85,77,63,29.98,29.85,11,8,22,0.00
2012-3-4,84.6,73.7,64.8,75.0,62.5,42.4,90,70,45,30.18,29.87,21,13,36,0.00
2012-3-5,74.3,67.5,60.3,57.7,49.5,40.7,71,54,45,30.30,30.17,17,11,27,0.00
2012-3-6,75.2,71.1,66.2,62.1,58.1,55.6,73,65,55,30.30,30.22,22,14,36,0.00
2012-3-7,77.9,73.7,70.5,70.8,66.6,60.1,88,79,64,30.25,30.16,26,14,33,0.02
2012-3-8,80.6,76.4,72.3,69.8,68.2,67.1,86,77,66,30.19,30.09,16,11,24,0.00
2012-3-9,82.9,77.7,74.1,70.3,69.3,67.7,87,76,65,30.15,30.05,13,8,19,0.00
2012-3-10,81.7,76.7,72.1,71.8,68.6,64.9,92,77,60,30.16,30.06,11,7,18,0.00
2012-3-11,81.0,77.3,72.0,69.4,67.1,65.2,89,72,62,30.21,30.09,15,12,26,0.02
2012-3-12,79.2,75.7,72.0,69.2,66.4,63.3,89,74,61,30.21,30.11,22,14,31,0.05
2012-3-13,79.9,75.6,72.3,65.7,63.9,61.1,79,68,55,30.18,30.10,13,10,24,0.00
2012-3-14,80.8,75.7,71.1,68.0,64.8,59.3,85,70,50,30.17,30.07,14,8,21,0.02
2012-3-15,80.8,75.5,71.1,70.3,67.3,63.4,91,77,63,30.14,30.06,16,10,24,0.09
2012-3-16,80.8,76.7,73.8,69.1,67.2,64.8,84,73,63,30.17,30.06,13,10,21,0.00
2012-3-17,80.6,76.8,73.4,68.5,65.4,61.9,79,69,56,30.18,30.08,14,10,21,0.00
2012-3-18,80.4,76.3,72.0,66.2,63.5,61.0,74,66,55,30.19,30.09,14,9,22,0.00
2012-3-19,80.4,76.4,71.1,67.5,64.5,61.0,85,68,55,30.15,30.03,15,10,24,0.00
2012-3-20,80.6,76.6,72.1,66.4,64.3,62.2,81,67,57,30.07,29.98,15,12,24,0.00
2012-3-21,81.3,78.0,75.6,71.6,68.7,65.4,81,74,67,30.09,29.99,17,13,30,0.00
2012-3-22,81.3,77.7,73.9,71.4,69.3,67.3,88,76,68,30.12,30.02,16,12,28,0.00
2012-3-23,82.6,78.2,75.6,69.2,65.8,61.4,80,67,52,30.11,30.01,12,8,19,0.00
2012-3-24,83.3,78.2,75.0,68.2,65.2,61.9,76,66,56,30.05,29.95,9,6,14,0.00
2012-3-25,85.1,78.7,75.2,71.6,69.1,66.6,82,73,62,29.99,29.87,12,6,18,0.00
2012-3-26,80.8,75.6,70.3,68.7,61.2,56.5,82,63,47,30.01,29.90,10,6,18,0.00
2012-3-27,82.2,76.1,70.2,66.4,63.7,60.6,82,67,52,30.12,29.97,12,7,21,0.00
2012-3-28,79.7,76.5,75.0,67.3,64.1,60.7,75,66,59,30.12,30.03,18,13,29,0.00
2012-3-29,81.5,76.9,73.9,66.5,64.2,62.1,72,66,58,30.06,29.97,12,9,21,0.00
2012-3-30,81.7,77.3,74.1,68.0,65.1,62.6,77,67,57,30.06,29.96,12,8,17,0.00
2012-3-31,86.2,79.5,75.7,73.0,70.2,67.4,87,74,59,30.02,29.91,9,6,17,0.00
2012-4-1,88.2,78.4,73.4,72.0,68.5,64.2,91,73,49,29.97,29.88,9,3,16,0.00
2012-4-2,89.1,79.1,72.9,70.8,67.8,64.6,84,70,51,29.94,29.86,6,2,12,0.00
2012-4-3,84.9,79.4,74.3,73.4,70.3,68.6,89,75,61,29.98,29.90,10,5,17,0.00
2012-4-4,86.0,80.5,77.5,71.4,68.8,66.3,79,69,61,29.97,29.83,10,7,18,0.00
2012-4-5,87.8,80.2,68.7,74.4,71.5,65.8,95,76,62,29.89,29.79,20,7,30,1.54
2012-4-6,86.2,80.4,75.9,75.6,72.9,69.5,88,79,66,29.93,29.78,20,10,30,0.02
2012-4-7,83.1,77.3,71.4,70.9,66.8,62.6,85,71,58,30.06,29.91,15,8,25,0.00
2012-4-8,81.9,77.2,74.3,68.7,64.9,61.8,81,67,54,30.11,30.04,18,12,30,0.00
2012-4-9,81.9,77.1,71.4,65.1,61.2,57.3,77,60,46,30.08,29.99,12,7,20,0.00
2012-4-10,82.6,77.0,69.6,66.4,61.1,58.2,79,60,47,30.08,29.99,8,4,14,0.00
2012-4-11,87.4,78.0,70.5,65.0,61.6,58.8,75,59,43,30.08,29.99,7,3,13,0.00
2012-4-12,84.6,76.8,70.7,65.8,62.4,54.2,80,64,42,30.06,29.99,10,4,18,0.00
2012-4-13,87.1,78.8,71.1,67.8,65.3,63.5,83,65,50,30.10,29.99,6,3,11,0.00
2012-4-14,81.3,77.3,74.1,70.9,66.8,63.0,84,71,61,30.16,30.04,22,12,34,0.02
2012-4-15,81.0,77.4,74.5,66.3,62.9,57.2,75,63,48,30.17,30.09,19,14,29,0.00
2012-4-16,81.7,77.9,75.4,67.6,64.1,58.8,75,64,50,30.14,30.05,18,14,30,0.00
2012-4-17,81.5,77.8,73.4,67.8,65.1,61.2,80,66,57,30.13,30.04,16,12,26,0.00
2012-4-18,84.0,78.7,75.7,70.2,67.5,65.4,77,70,58,30.07,29.96,13,8,21,0.00
2012-4-19,86.7,79.5,76.3,71.0,68.6,66.5,81,70,54,30.01,29.89,9,5,17,0.00
2012-4-20,86.0,80.6,76.5,72.2,70.4,68.7,84,72,60,29.94,29.82,9,6,17,0.00
2012-4-21,79.0,73.5,68.9,73.1,70.1,66.4,98,89,79,29.87,29.65,17,9,30,1.18
2012-4-22,80.6,77.2,73.9,73.4,67.2,61.8,91,72,57,29.80,29.62,24,15,42,0.02
2012-4-23,80.1,75.3,71.8,65.2,57.9,50.1,73,57,42,29.94,29.80,16,11,26,0.00
2012-4-24,76.1,71.3,66.2,58.1,52.7,48.6,64,54,42,30.05,29.91,12,8,22,0.00
2012-4-25,78.3,71.6,64.9,60.2,55.8,49.8,74,60,46,30.13,30.03,12,6,19,0.00
2012-4-26,80.4,75.9,71.1,65.5,61.7,58.6,81,63,52,30.13,30.04,13,8,22,0.00
2012-4-27,81.5,76.5,72.1,73.4,69.7,65.2,91,80,67,30.10,30.01,15,8,24,0.00
2012-4-28,81.0,76.6,73.6,73.6,71.4,68.0,93,85,73,30.06,29.97,18,10,27,0.00
2012-4-29,80.6,74.7,71.6,72.9,71.3,69.9,97,89,75,30.02,29.93,15,8,26,0.71
2012-4-30,81.3,76.0,72.5,74.9,72.2,69.4,95,89,77,29.97,29.88,19,13,29,0.12
2012-5-1,80.2,77.6,72.7,74.4,73.0,70.8,95,86,80,30.01,29.91,17,13,28,0.40
2012-5-2,82.4,79.1,73.8,74.5,72.9,70.9,93,82,75,30.04,29.94,18,13,27,0.05
2012-5-3,83.3,79.8,77.5,73.9,72.6,71.0,84,79,72,30.06,29.98,14,12,24,0.00
2012-5-4,83.8,79.6,76.8,73.1,70.2,67.5,85,74,63,30.06,29.97,12,10,21,0.00
2012-5-5,84.7,80.1,76.5,70.5,68.5,66.5,80,69,57,30.01,29.94,12,7,19,0.00
2012-5-6,88.3,81.0,77.4,71.8,69.7,68.0,80,70,56,29.99,29.90,11,6,18,0.00
2012-5-7,88.3,81.2,77.2,72.7,71.2,69.8,81,73,59,29.94,29.86,7,4,15,0.00
2012-5-8,89.4,82.0,77.9,75.0,72.4,69.5,83,74,55,29.92,29.86,8,4,14,0.00
2012-5-9,90.0,83.3,78.4,76.0,73.7,71.1,85,74,60,29.92,29.82,8,5,14,0.00
2012-5-10,88.2,82.7,78.8,74.8,73.0,67.5,83,74,53,29.92,29.82,12,7,17,0.00
2012-5-11,88.0,82.2,76.3,74.5,72.6,69.8,87,74,60,30.05,29.89,7,4,11,0.00
2012-5-12,86.5,82.4,79.7,75.7,73.8,72.1,82,76,66,30.11,30.02,16,10,26,0.00
2012-5-13,85.1,81.4,79.0,74.2,72.7,71.1,84,76,66,30.08,29.97,15,11,24,0.00
2012-5-14,87.8,82.3,78.4,74.5,73.1,71.7,83,75,62,30.03,29.91,10,6,16,0.00
2012-5-15,89.6,82.5,79.3,77.2,74.6,71.9,86,78,61,30.01,29.93,8,4,13,0.00
2012-5-16,83.3,80.3,76.8,76.8,73.8,71.1,91,81,73,30.01,29.90,9,4,15,0.00
2012-5-17,82.2,77.3,72.5,75.8,72.6,66.6,99,86,67,29.96,29.88,20,4,31,1.54
2012-5-18,89.2,81.9,77.0,73.7,71.0,66.7,83,71,55,29.95,29.88,7,3,12,0.00
2012-5-19,85.3,79.9,75.7,74.2,72.8,69.4,93,80,61,29.94,29.87,8,4,14,0.09
2012-5-20,87.1,79.8,73.6,73.6,71.9,68.9,94,78,60,29.96,29.87,10,5,17,0.14
2012-5-21,88.9,81.4,76.1,75.1,72.9,70.1,92,77,59,29.98,29.91,8,4,14,0.00
2012-5-22,90.5,82.5,78.3,74.9,72.7,70.4,85,73,57,29.96,29.89,13,5,21,0.00
2012-5-23,85.1,80.6,78.1,76.2,73.4,70.6,87,79,67,29.91,29.81,12,7,20,0.00
2012-5-24,90.0,82.6,79.0,77.2,74.6,72.1,89,78,59,29.90,29.77,12,7,21,0.00
2012-5-25,89.6,83.8,78.8,77.7,76.0,74.3,90,79,64,30.00,29.87,12,5,19,0.00
2012-5-26,89.2,84.1,79.7,76.7,75.1,71.3,85,75,61,30.00,29.93,10,6,19,0.00
2012-5-27,92.3,84.1,77.0,76.7,72.3,69.0,90,70,52,29.99,29.88,11,3,19,0.00
2012-5-28,90.5,84.3,79.3,75.5,73.8,71.8,83,72,60,29.97,29.88,7,4,14,0.00
2012-5-29,96.4,85.2,79.3,76.9,74.0,69.6,83,71,45,29.97,29.89,8,4,15,0.00
2012-5-30,91.2,82.4,72.1,76.1,73.7,67.7,94,76,57,29.96,29.87,12,4,24,1.68
2012-5-31,87.6,82.4,77.7,76.2,74.6,72.3,90,78,64,29.94,29.86,8,5,15,0.02
2012-6-1,87.3,80.3,73.4,77.4,74.8,71.4,96,84,67,29.97,29.87,18,7,32,0.85
2012-6-2,88.3,82.1,79.0,76.7,74.9,73.4,88,80,67,30.00,29.89,12,6,23,0.02
2012-6-3,95.4,84.2,78.4,81.3,76.0,73.8,90,78,56,30.05,29.96,6,2,12,0.07
2012-6-4,92.8,84.9,78.8,79.2,76.1,73.3,87,76,62,30.01,29.90,8,3,14,0.00
2012-6-5,91.4,84.7,82.0,78.6,76.4,74.1,84,77,62,29.92,29.85,10,5,18,0.00
2012-6-6,90.1,84.1,82.2,79.8,76.9,74.5,92,80,62,29.96,29.87,9,7,18,0.00
2012-6-7,90.3,84.7,82.0,79.2,76.9,72.5,90,78,68,29.98,29.91,8,5,19,0.00
2012-6-8,95.4,86.1,81.5,80.2,77.7,74.7,92,77,56,29.99,29.89,8,4,15,0.00
2012-6-9,89.6,84.7,77.2,79.1,76.1,71.0,90,76,63,30.00,29.92,18,7,34,0.00
2012-6-10,89.1,85.6,82.8,80.1,78.3,76.3,89,80,68,30.08,29.96,14,9,22,0.00
2012-6-11,88.9,84.6,81.3,78.8,74.1,68.6,85,72,57,30.08,30.01,14,11,26,0.00
2012-6-12,88.3,83.5,79.9,71.1,69.4,66.3,72,64,52,30.06,29.94,11,8,20,0.00
2012-6-13,91.6,84.4,77.4,76.8,73.3,69.3,85,71,55,30.01,29.92,7,3,13,0.00
2012-6-14,92.5,85.3,79.2,76.1,73.6,68.9,85,70,49,30.01,29.90,8,4,14,0.00
2012-6-15,95.5,85.4,79.5,76.3,73.7,69.4,83,70,51,30.00,29.92,9,4,16,0.00
2012-6-16,88.9,83.1,72.0,76.1,73.8,69.8,97,75,59,30.00,29.91,22,7,37,1.98
2012-6-17,86.7,81.8,75.6,74.9,70.3,62.2,93,70,48,30.00,29.89,16,10,25,0.05
2012-6-18,86.4,82.5,79.5,72.9,69.6,63.8,74,66,55,29.97,29.88,16,12,27,0.00
2012-6-19,81.9,79.1,74.1,77.0,74.5,70.8,99,86,70,29.99,29.89,19,12,31,2.55
2012-6-20,84.4,80.0,76.5,76.3,74.7,69.4,96,84,64,29.95,29.87,14,9,28,0.40
2012-6-21,85.6,78.8,74.7,79.4,75.6,73.6,99,90,76,29.94,29.85,15,8,25,2.83
2012-6-22,85.3,79.6,74.7,77.5,75.6,72.7,98,88,75,29.93,29.81,16,6,36,0.52
2012-6-23,86.4,81.1,76.1,79.8,77.4,73.3,97,89,80,29.94,29.83,15,9,29,0.09
2012-6-24,88.5,83.6,78.3,80.2,78.3,74.5,94,85,73,29.94,29.82,23,9,40,0.12
2012-6-25,86.7,83.2,82.0,78.7,77.1,75.9,86,82,75,29.87,29.77,6,0,26,0.00
2012-6-26,89.2,83.9,81.5,80.0,77.6,74.7,92,82,70,29.83,29.74,2,0,18,0.00
2012-6-27,90.3,85.2,81.9,79.9,78.4,75.8,91,81,67,30.01,29.81,1,0,23,0.00
2012-6-28,96.1,85.0,79.3,79.4,77.2,73.3,90,78,58,30.07,29.99,0,0,1,0.05
2012-6-29,93.9,85.0,79.2,79.5,77.0,73.5,90,78,61,30.05,29.97,0,0,0,0.05
2012-6-30,94.5,84.9,76.1,78.3,76.4,73.8,96,77,56,30.02,29.95,12,0,18,0.71
2012-7-1,89.6,82.4,79.5,77.4,75.4,70.8,87,80,63,30.08,29.99,0,0,0,0.00
2012-7-16,86.5,83.6,79.5,77.8,75.8,73.7,84,78,68,29.92,29.85,13,5,21,0.00
2012-7-17,88.2,81.5,72.5,77.8,74.4,67.7,89,80,70,30.05,29.85,24,5,35,1.16
2012-7-18,88.0,84.4,80.1,79.6,76.9,71.3,84,79,72,30.14,29.98,10,5,15,0.00
2012-7-19,86.9,84.8,83.3,77.9,76.3,74.5,83,76,68,30.18,30.08,13,9,21,0.00
2012-7-20,86.9,84.9,82.6,77.8,76.9,74.0,85,77,71,30.13,30.04,14,10,22,0.00
2012-7-21,87.6,85.0,79.0,79.8,77.8,71.1,88,80,70,30.08,30.01,16,10,31,0.09
2012-7-22,84.4,80.5,74.8,78.5,74.8,70.1,92,83,71,30.12,30.01,18,8,34,0.97
2012-7-23,88.2,84.6,80.6,79.4,77.5,73.4,89,80,70,30.17,30.08,10,6,14,0.00
2012-7-24,87.6,85.0,82.8,79.2,77.5,75.4,86,79,71,30.12,30.03,9,6,14,0.00
2012-7-25,87.8,84.5,81.5,76.2,74.6,73.1,82,73,64,30.05,29.99,7,5,12,0.00
2012-7-26,88.7,85.2,82.8,77.3,75.5,73.1,83,74,64,30.05,29.96,8,5,14,0.00
2012-7-27,89.4,85.4,83.1,77.4,76.0,73.5,81,74,63,30.07,29.98,8,5,14,0.00
2012-7-28,88.3,85.5,83.1,77.0,75.3,72.1,77,72,66,30.10,30.02,8,5,14,0.00
2012-7-29,88.7,85.2,82.4,76.7,74.1,72.1,76,70,60,30.08,29.99,7,4,13,0.00
2012-7-30,89.4,84.3,79.2,77.9,74.6,68.6,83,74,64,30.06,29.97,10,3,16,0.24
2012-7-31,89.1,85.3,79.2,77.4,73.9,68.7,81,70,60,30.04,29.97,6,3,14,0.00
2012-8-1,90.3,85.4,79.7,77.6,75.1,73.1,82,72,60,30.03,29.94,9,4,13,0.24
2012-8-2,90.1,86.3,83.3,76.9,75.2,72.1,80,71,60,30.00,29.90,7,3,14,0.00
2012-8-3,90.1,86.0,83.1,78.8,75.9,73.3,82,73,60,29.97,29.89,10,5,17,0.07
2012-8-4,89.4,85.2,80.8,80.4,76.4,74.0,88,76,63,30.02,29.92,11,4,17,0.28
2012-8-5,88.5,85.8,80.1,77.7,76.2,73.4,85,74,65,30.04,29.96,16,9,24,0.02
2012-8-6,86.0,83.2,77.5,79.4,76.9,72.6,91,82,74,30.04,29.93,18,9,30,1.11
2012-8-7,88.0,85.7,83.7,78.3,76.5,74.1,82,75,65,30.00,29.91,13,10,20,0.00
2012-8-8,88.3,85.7,83.8,78.2,76.8,75.0,83,75,69,30.01,29.92,13,10,21,0.00
2012-8-9,88.2,85.5,82.9,77.8,76.6,72.1,82,75,67,30.00,29.88,14,9,26,0.00
2012-8-10,87.3,82.9,77.9,77.8,75.1,70.5,89,78,67,29.98,29.89,11,6,18,0.31
2012-8-11,88.0,83.7,79.7,77.1,75.3,72.1,85,77,67,30.05,29.92,11,5,20,0.00
2012-8-12,90.3,85.0,81.3,76.9,74.9,72.1,81,73,60,30.06,29.95,6,4,11,0.00
2012-8-13,89.1,85.9,83.5,78.8,76.8,74.3,83,75,64,30.05,29.97,9,5,16,0.00
2012-8-14,88.9,86.1,83.3,79.1,76.2,73.3,83,73,63,30.05,29.92,11,6,17,0.12
2012-8-15,89.1,85.9,82.9,79.0,76.2,72.6,84,74,63,30.04,29.94,10,5,18,0.00
2012-8-16,89.2,86.1,84.0,77.4,75.7,73.0,80,72,61,30.06,29.97,8,5,14,0.00
2012-8-17,90.1,85.9,83.5,77.1,75.1,72.6,77,71,60,30.04,29.94,7,4,12,0.00
2012-8-18,90.1,86.2,83.5,77.2,74.3,70.8,80,69,56,30.00,29.91,7,5,13,0.00
2012-8-19,89.4,86.0,83.3,77.2,75.1,73.1,78,71,63,30.00,29.92,8,4,14,0.00
2012-8-20,89.1,86.0,81.7,77.9,75.9,72.8,81,73,62,30.02,29.92,11,4,18,0.00
2012-8-21,89.2,85.2,80.8,77.8,75.0,71.7,85,73,59,30.08,29.97,15,5,27,0.05
2012-8-22,89.2,85.9,82.2,78.4,75.7,72.2,82,73,64,30.08,29.99,10,6,18,0.00
2012-8-23,88.9,85.8,80.6,78.4,75.1,72.6,86,71,61,30.06,29.96,12,8,19,0.00
2012-8-24,87.6,83.3,74.8,77.0,74.3,68.7,91,75,66,30.00,29.85,27,11,50,0.21
2012-8-25,82.0,78.2,73.4,77.5,74.1,70.3,94,88,71,29.94,29.80,24,10,51,0.73
2012-8-26,82.2,80.1,76.6,78.0,76.5,74.5,96,89,83,29.81,29.45,28,18,48,2.06
2012-8-27,87.1,83.5,80.2,79.2,77.6,75.7,90,83,71,29.89,29.58,24,16,41,0.02
2012-8-28,89.2,84.0,80.4,79.6,77.5,74.5,88,82,70,29.96,29.87,13,8,26,0.00
2012-8-29,91.8,84.1,76.6,80.7,76.2,73.8,93,78,62,29.99,29.89,13,6,23,0.71
2012-8-30,87.6,84.5,81.5,79.1,77.4,75.7,86,80,72,30.07,29.93,10,7,23,0.02
2012-8-31,87.1,84.5,81.1,78.3,76.0,73.1,87,76,65,30.12,30.03,11,8,18,0.00
2012-9-1,87.3,83.6,81.1,77.6,75.8,74.0,84,78,70,30.09,30.00,9,5,14,0.00
2012-9-2,87.3,83.4,80.4,77.8,75.8,73.8,88,79,66,30.03,29.94,7,5,15,0.00
2012-9-3,88.0,84.2,81.5,76.6,75.0,72.3,83,75,62,30.03,29.94,8,4,13,0.00
2012-9-4,87.4,84.3,81.5,77.2,75.4,71.9,83,75,65,30.01,29.92,10,5,17,0.00
2012-9-5,88.0,84.7,82.8,76.8,74.8,71.6,80,73,61,29.99,29.92,8,5,17,0.00
2012-9-6,88.5,84.8,82.8,76.8,74.7,72.6,81,73,63,30.02,29.94,8,4,13,0.00
2012-9-7,89.4,85.0,82.6,76.5,74.7,73.0,80,72,62,30.00,29.90,7,4,13,0.00
2012-9-8,89.6,85.1,82.6,76.3,74.1,71.8,80,71,60,29.99,29.88,8,4,14,0.00
2012-9-9,89.4,85.4,82.2,77.4,74.7,72.6,80,71,63,29.99,29.92,11,6,18,0.00
2012-9-10,89.6,84.9,81.5,76.7,74.7,71.3,82,73,59,30.02,29.94,12,5,18,0.00
2012-9-11,88.7,84.4,77.5,78.0,76.0,73.5,95,77,63,30.04,29.96,14,5,29,1.65
2012-9-12,87.6,84.1,78.1,78.1,75.6,72.3,91,77,63,30.02,29.92,15,10,27,0.57
2012-9-13,84.2,82.2,77.4,78.8,76.3,73.1,91,83,75,30.01,29.90,17,10,34,0.54
2012-9-14,87.3,82.2,76.3,78.8,76.7,72.8,93,84,71,30.00,29.91,12,7,18,0.35
2012-9-15,85.8,82.9,79.3,77.3,75.6,73.8,86,79,72,30.01,29.91,13,8,24,0.00
2012-9-16,84.2,82.3,79.9,76.8,74.8,72.7,85,79,72,30.00,29.91,12,7,25,0.00
2012-9-17,84.9,82.1,74.8,78.2,75.6,71.9,93,81,73,29.99,29.92,12,6,23,4.39
2012-9-18,88.5,85.0,80.4,78.5,76.7,71.9,83,77,70,30.00,29.90,17,8,29,0.00
2012-9-19,87.8,83.3,75.7,77.2,74.5,68.2,92,76,66,30.03,29.89,19,5,37,0.00
2012-9-20,87.4,83.7,77.4,78.2,76.0,72.2,88,78,65,30.00,29.89,12,5,24,0.00
2012-9-21,83.1,80.1,73.4,76.2,74.3,70.9,96,83,73,30.02,29.87,16,8,27,1.70
2012-9-22,87.1,81.0,77.2,76.8,74.9,72.9,91,82,65,30.00,29.88,11,4,20,0.31
2012-9-23,88.2,81.8,79.9,77.7,75.7,71.4,88,82,66,30.04,29.96,8,3,16,0.02
2012-9-24,82.0,80.6,77.2,76.5,74.2,70.6,90,81,70,30.05,29.94,8,4,14,0.14
2012-9-25,84.2,81.1,79.0,77.3,75.0,73.9,87,82,78,30.04,29.95,9,5,15,0.00
2012-9-26,86.5,81.9,77.4,78.6,76.2,72.4,92,83,74,30.06,29.97,11,5,19,0.12
2012-9-27,86.2,82.5,80.1,79.7,76.9,72.2,93,84,72,30.06,29.96,9,4,15,0.09
2012-9-28,86.9,82.6,78.4,78.4,75.6,72.4,89,80,64,30.01,29.89,11,5,20,0.02
2012-9-29,87.1,82.6,79.2,78.6,75.7,72.8,91,80,67,29.96,29.83,10,4,16,0.00
2012-9-30,85.3,82.8,79.9,77.0,74.8,73.5,86,77,69,29.88,29.75,10,7,18,0.00
2012-10-1,85.6,82.2,79.0,78.6,76.2,73.5,88,82,76,29.86,29.75,14,10,24,0.14
2012-10-2,86.5,81.0,75.7,78.3,75.8,72.4,94,85,73,30.04,29.84,19,8,29,1.04
2012-10-3,87.1,83.0,78.6,80.0,76.7,72.5,88,82,75,30.11,30.01,11,6,17,0.02
2012-10-4,87.3,83.8,81.3,79.2,77.2,74.4,88,81,70,30.12,30.01,13,7,21,0.00
2012-10-5,86.2,83.7,81.3,78.1,77.0,74.5,88,81,73,30.06,29.89,13,8,21,0.02
2012-10-6,87.4,84.0,81.1,77.7,76.2,72.9,86,78,67,29.95,29.83,11,6,17,0.02
2012-10-7,86.9,82.9,79.7,77.3,75.8,72.4,90,80,70,29.94,29.84,11,6,19,0.05
2012-10-8,86.0,83.7,81.0,78.4,76.7,74.6,86,80,74,29.97,29.87,9,6,15,0.00
2012-10-9,85.3,81.9,78.8,79.1,76.5,73.8,91,84,71,30.00,29.91,10,3,17,0.54
2012-10-10,87.1,81.5,76.1,79.1,76.0,72.4,93,84,65,30.04,29.94,16,4,24,0.83
2012-10-11,84.2,81.7,79.5,76.7,71.3,66.9,87,72,60,30.09,29.97,12,9,24,0.05
2012-10-12,84.9,80.7,77.4,71.8,68.1,62.5,81,67,52,30.09,30.00,11,8,21,0.00
2012-10-13,83.3,79.3,76.6,73.3,69.8,67.0,82,74,62,30.06,29.96,19,11,30,0.00
2012-10-14,84.6,80.7,77.9,77.1,74.7,71.2,86,83,76,30.00,29.86,17,11,27,0.00
2012-10-15,85.3,80.9,77.4,77.5,75.5,71.8,93,85,65,29.89,29.77,10,5,16,0.17
2012-10-16,84.9,81.2,78.3,75.8,73.3,66.4,90,78,56,29.84,29.75,8,4,14,0.00
2012-10-17,85.6,80.6,76.3,77.0,74.6,72.6,93,82,70,29.86,29.78,10,4,24,0.99
2012-10-18,88.3,81.5,75.0,79.5,76.0,72.7,95,84,69,29.87,29.77,18,4,29,0.90
2012-10-19,88.9,83.5,80.1,78.3,75.8,73.3,88,78,63,29.88,29.81,7,3,11,0.00
2012-10-20,85.3,81.7,79.0,76.1,74.1,70.4,88,79,64,29.91,29.81,10,4,17,0.00
2012-10-21,84.7,81.2,78.3,76.3,73.0,67.6,89,77,66,29.96,29.84,15,8,24,0.00
2012-10-22,83.1,80.2,77.4,72.2,69.1,63.8,81,70,55,29.96,29.88,20,12,30,0.00
2012-10-23,83.1,80.8,79.9,73.6,69.9,67.0,81,70,63,29.92,29.83,21,13,29,0.00
2012-10-24,83.7,79.9,72.9,75.0,73.2,69.5,93,81,67,29.89,29.75,20,12,36,0.21
2012-10-25,79.9,76.1,70.3,74.1,71.9,66.6,94,87,76,29.79,29.62,21,11,41,0.43
2012-10-26,80.2,77.6,72.5,73.8,70.8,67.9,94,80,72,29.65,29.57,21,16,34,0.45
2012-10-27,81.0,78.3,76.5,73.0,66.8,63.5,86,69,57,29.74,29.60,27,20,36,0.00
2012-10-28,80.2,77.4,74.5,70.5,66.9,60.5,82,71,62,29.81,29.71,25,17,32,0.00
2012-10-29,74.5,72.2,70.0,63.3,57.3,53.0,70,61,51,29.88,29.78,20,16,27,0.00
2012-10-30,73.4,70.8,68.5,60.2,56.5,52.3,69,62,53,30.01,29.84,16,10,23,0.00
2012-10-31,76.1,71.4,66.6,64.8,58.8,55.0,85,66,51,30.06,29.98,12,5,17,0.00
2012-11-1,78.8,72.7,67.5,66.3,63.6,59.9,90,75,56,30.08,29.99,8,3,12,0.00
2012-11-2,80.6,74.2,70.0,69.6,66.2,62.8,87,77,64,30.07,30.00,7,4,11,0.00
2012-11-3,78.3,72.9,68.4,67.5,61.8,52.5,86,70,43,30.11,30.02,9,5,15,0.00
2012-11-4,78.8,74.9,70.3,68.5,65.9,62.6,91,75,61,30.09,29.98,9,5,14,0.00
2012-11-5,79.0,74.2,71.8,68.5,65.7,62.5,87,76,59,29.99,29.92,7,3,11,0.00
2012-11-6,81.9,76.1,71.1,71.9,67.9,65.0,89,77,64,29.94,29.84,11,4,14,0.00
2012-11-7,76.5,73.0,69.3,71.5,63.2,57.1,89,73,53,29.97,29.83,17,10,26,0.00
2012-11-8,69.1,66.4,62.8,60.0,49.1,40.5,75,56,39,30.11,29.96,13,8,23,0.00
2012-11-9,74.1,68.6,62.6,59.7,55.0,46.3,74,63,52,30.16,30.07,18,10,26,0.00
2012-11-10,72.5,71.0,68.4,60.4,59.2,57.2,74,67,64,30.20,30.11,11,8,18,0.00
2012-11-11,72.3,72.3,72.3,59.5,59.5,59.5,65,65,65,30.19,30.19,8,8,14,0.00
2012-11-12,85.1,75.0,72.3,77.8,66.2,59.5,91,75,65,30.19,29.91,16,9,23,0.02
2012-11-13,79.0,74.8,71.8,70.1,68.6,66.4,91,82,69,30.03,29.94,16,8,23,0.00
2012-11-14,79.2,74.0,70.2,70.3,68.4,66.3,91,83,66,30.02,29.94,9,6,15,0.00
2012-11-15,79.2,74.4,71.2,69.5,67.2,63.7,92,80,61,30.06,29.89,9,5,14,0.00
2012-11-16,75.0,72.0,69.6,68.7,67.5,66.1,93,86,77,30.06,29.98,10,6,18,0.00
2012-11-17,77.7,73.2,69.6,69.6,68.4,66.2,95,85,70,30.14,29.97,12,8,20,0.00
2012-11-18,77.5,73.9,70.9,69.8,68.2,66.2,90,83,73,30.08,29.99,13,8,19,0.00
2012-11-19,75.7,70.9,66.0,66.9,62.3,55.1,92,76,51,30.11,30.00,12,8,20,0.00
2012-11-20,69.1,66.3,63.5,64.6,61.3,58.2,91,84,77,30.06,29.94,13,8,21,0.00
2012-11-21,72.9,68.9,65.7,65.0,58.9,50.0,88,72,53,30.04,29.94,16,10,24,0.00
2012-11-22,71.1,67.2,64.0,56.6,50.6,41.8,72,57,40,30.11,30.01,15,10,26,0.00
2012-11-23,70.7,66.3,61.5,60.3,56.5,43.2,82,72,48,30.15,30.05,13,8,21,0.00
2012-11-24,72.0,67.3,63.5,63.0,56.9,48.9,92,71,57,30.13,30.02,12,6,20,0.00
2012-11-25,69.3,65.3,61.7,63.9,55.8,45.5,96,73,46,30.14,30.04,9,4,16,0.00
2012-11-26,85.1,67.4,62.8,77.8,63.0,57.0,93,86,74,30.14,29.95,10,4,15,0.00
2012-11-27,78.3,74.1,70.2,70.5,68.5,65.3,94,83,75,30.12,30.04,10,5,15,0.02
2012-11-28,75.2,71.1,69.4,69.9,67.4,63.7,95,88,71,30.14,30.04,11,5,17,0.02
2012-11-29,76.8,71.4,67.5,68.0,66.4,64.3,94,85,73,30.15,30.06,17,10,26,0.00
2012-11-30,76.1,72.0,68.7,68.5,67.0,65.3,96,85,74,30.12,30.04,18,12,27,0.09
2012-12-1,77.5,73.2,70.0,68.8,66.4,63.5,90,80,71,30.12,30.03,16,10,25,0.00
2012-12-2,77.5,73.7,70.0,68.9,67.3,65.6,91,81,70,30.16,30.06,15,9,24,0.00
2012-12-3,77.7,73.6,71.2,67.8,64.9,57.1,85,75,60,30.16,30.08,17,10,32,0.05
2012-12-4,76.8,72.2,68.9,67.5,64.8,60.5,88,78,65,30.16,30.06,16,8,23,0.02
2012-12-5,76.6,72.8,69.8,68.7,66.6,64.0,91,82,67,30.08,29.95,11,7,17,0.02
2012-12-6,76.6,72.2,70.2,70.9,68.7,66.7,95,89,79,29.95,29.86,8,3,14,0.00
2012-12-7,78.8,73.5,68.9,71.7,69.5,67.7,97,88,71,29.93,29.84,7,3,9,0.02
2012-12-8,77.7,74.0,72.7,72.8,71.5,70.1,95,92,83,29.98,29.88,6,3,9,0.52
2012-12-9,81.7,76.9,73.2,77.7,74.2,72.0,98,92,81,30.03,29.94,6,3,9,0.02
2012-12-10,82.4,79.2,76.6,76.7,75.7,74.8,96,89,79,29.97,29.87,10,7,17,0.00
2012-12-11,83.8,80.1,77.9,77.3,76.0,75.0,94,88,77,30.00,29.88,10,5,16,0.00
2012-12-12,81.7,79.1,77.7,75.7,74.3,71.6,91,86,79,30.04,29.95,12,6,20,0.00
2012-12-13,84.6,75.5,71.4,75.3,71.2,67.3,92,87,71,30.08,29.98,14,6,19,0.00
2012-12-14,75.7,72.3,69.3,70.5,67.4,65.3,93,85,75,30.10,30.00,14,8,21,0.00
2012-12-15,78.1,73.9,70.0,69.6,68.0,66.2,93,82,72,30.07,29.99,12,7,18,0.00
2012-12-16,79.9,76.4,73.2,70.3,68.5,66.4,87,77,67,30.01,29.91,12,6,17,0.00
2012-12-17,81.9,77.5,74.5,72.9,70.8,67.9,93,80,70,29.97,29.89,10,4,17,0.00
2012-12-18,84.2,76.8,72.7,76.8,71.7,67.9,94,85,70,30.01,29.90,12,3,13,0.00
2012-12-19,79.2,75.5,71.8,72.8,70.4,67.3,95,85,71,30.07,29.99,11,6,14,0.00
2012-12-20,81.0,78.0,76.5,71.7,68.5,65.0,84,74,61,30.06,29.96,13,9,17,0.00
2012-12-21,77.2,69.7,63.5,72.6,60.1,46.4,90,73,55,30.17,29.98,27,16,36,0.00
2012-12-22,63.5,60.2,57.4,46.4,42.3,38.6,65,53,43,30.27,30.16,16,10,26,0.00
2012-12-23,70.7,64.0,58.1,60.1,52.0,39.1,82,66,50,30.20,30.09,11,6,16,0.00
2012-12-24,75.2,69.0,62.8,64.3,61.4,57.7,91,78,65,30.11,29.97,8,4,11,0.00
2012-12-25,77.2,72.1,65.7,69.2,65.3,62.2,93,80,67,30.01,29.90,12,7,21,0.00
2012-12-26,79.2,75.8,70.7,74.2,71.3,65.6,93,86,81,30.00,29.87,14,9,28,0.00
2012-12-27,70.7,67.0,64.2,65.6,58.0,47.8,86,74,50,30.07,29.96,14,7,19,0.00
2012-12-28,79.5,73.7,66.9,73.6,68.8,58.6,92,85,75,30.04,29.94,11,8,16,0.00
2012-12-29,81.0,76.6,69.3,75.2,72.7,63.1,93,88,79,30.11,29.91,18,9,24,0.00
2012-12-30,69.3,63.9,59.7,63.8,55.1,47.0,85,74,61,30.25,30.11,20,13,27,0.00
2012-12-31,73.6,69.8,63.9,62.8,60.9,59.3,90,75,63,30.24,30.14,20,13,23,0.00
2013-1-1,77.0,74.1,71.4,69.7,65.8,59.6,88,76,64,30.15,30.02,15,9,18,0.00